Time,TemperatureF,DewpointF,PressureIn,WindDirection,WindDirectionDegrees,WindSpeedMPH,WindSpeedGustMPH,Humidity,HourlyPrecipIn,Conditions,Clouds,dailyrainin,SoftwareType,DateUTC
2013-01-05 00:13:00,19.5,15.5,30.18,SW,229,0.0,0.0,84,0.00,,CLR,0.00,VWS V14.01,2013-01-05 06:13:00,
2013-01-05 00:28:00,18.9,14.6,30.18,SW,229,0.0,0.0,83,0.00,,CLR,0.00,VWS V14.01,2013-01-05 06:28:00,
2013-01-05 00:43:00,18.3,14.0,30.19,SW,229,0.0,0.0,83,0.00,,CLR,0.00,VWS V14.01,2013-01-05 06:43:00,
2013-01-05 00:58:00,16.3,11.5,30.19,SW,229,0.0,0.0,81,0.00,,CLR,0.00,VWS V14.01,2013-01-05 06:58:00,
2013-01-05 01:13:00,14.9,10.9,30.19,SW,229,0.0,0.0,84,0.00,,CLR,0.00,VWS V14.01,2013-01-05 07:13:00,
2013-01-05 01:28:00,15.8,12.9,30.19,SW,229,0.0,0.0,88,0.00,,CLR,0.00,VWS V14.01,2013-01-05 07:28:00,
2013-01-05 01:43:00,14.9,11.5,30.19,SW,229,0.0,0.0,86,0.00,,CLR,0.00,VWS V14.01,2013-01-05 07:43:00,
2013-01-05 01:58:00,13.9,10.8,30.19,SW,229,0.0,0.0,87,0.00,,CLR,0.00,VWS V14.01,2013-01-05 07:58:00,
2013-01-05 02:13:00,12.9,9.5,30.18,SW,229,0.0,0.0,86,0.00,,CLR,0.00,VWS V14.01,2013-01-05 08:13:00,
2013-01-05 02:28:00,10.7,7.1,30.17,SW,229,0.0,0.0,85,0.00,,CLR,0.00,VWS V14.01,2013-01-05 08:28:00,
2013-01-05 02:43:00,9.9,6.8,30.17,SW,229,0.0,0.0,87,0.00,,CLR,0.00,VWS V14.01,2013-01-05 08:43:00,
2013-01-05 02:58:00,9.6,6.8,30.18,SW,229,0.0,0.0,88,0.00,,CLR,0.00,VWS V14.01,2013-01-05 08:58:00,
2013-01-05 03:13:00,9.5,6.9,30.18,SW,229,0.0,0.0,89,0.00,,CLR,0.00,VWS V14.01,2013-01-05 09:13:00,
2013-01-05 03:28:00,9.5,6.9,30.18,SW,229,0.0,0.0,89,0.00,,CLR,0.00,VWS V14.01,2013-01-05 09:28:00,
2013-01-05 03:43:00,9.3,6.7,30.17,SW,229,0.0,0.0,89,0.00,,CLR,0.00,VWS V14.01,2013-01-05 09:43:00,
2013-01-05 03:58:00,8.7,6.1,30.17,SW,229,0.0,0.0,89,0.00,,CLR,0.00,VWS V14.01,2013-01-05 09:58:00,
2013-01-05 04:13:00,8.3,5.7,30.17,SW,229,0.0,0.0,89,0.00,,CLR,0.00,VWS V14.01,2013-01-05 10:13:00,
2013-01-05 04:28:00,7.9,5.1,30.17,SW,229,0.0,0.0,88,0.00,,CLR,0.00,VWS V14.01,2013-01-05 10:28:00,
2013-01-05 04:43:00,6.8,4.0,30.18,SW,229,0.0,0.0,88,0.00,,CLR,0.00,VWS V14.01,2013-01-05 10:43:00,
2013-01-05 04:58:00,6.7,4.2,30.18,SW,229,0.0,0.0,89,0.00,,CLR,0.00,VWS V14.01,2013-01-05 10:58:00,
2013-01-05 05:13:00,6.5,3.7,30.17,SW,229,0.0,0.0,88,0.00,,CLR,0.00,VWS V14.01,2013-01-05 11:13:00,
2013-01-05 05:28:00,6.0,3.0,30.16,SW,229,0.0,0.0,87,0.00,,CLR,0.00,VWS V14.01,2013-01-05 11:28:00,
2013-01-05 05:43:00,5.5,2.7,30.15,SW,229,0.0,0.0,88,0.00,,CLR,0.00,VWS V14.01,2013-01-05 11:43:00,
2013-01-05 05:58:00,5.3,2.5,30.15,SW,229,0.0,0.0,88,0.00,,CLR,0.00,VWS V14.01,2013-01-05 11:58:00,
2013-01-05 06:13:00,5.0,4.8,30.15,SW,229,0.0,0.0,99,0.00,,CLR,0.00,VWS V14.01,2013-01-05 12:13:00,
2013-01-05 06:28:00,4.7,1.9,30.13,SW,229,0.0,0.0,88,0.00,,CLR,0.00,VWS V14.01,2013-01-05 12:28:00,
2013-01-05 06:43:00,4.7,1.9,30.12,SW,229,0.0,0.0,88,0.00,,CLR,0.00,VWS V14.01,2013-01-05 12:43:00,
2013-01-05 06:58:00,4.7,1.9,30.13,SW,229,0.0,0.0,88,0.00,,CLR,0.00,VWS V14.01,2013-01-05 12:58:00,
2013-01-05 07:13:00,4.7,1.9,30.14,SW,229,0.0,0.0,88,0.00,,CLR,0.00,VWS V14.01,2013-01-05 13:13:00,
2013-01-05 07:28:00,4.7,1.9,30.13,SW,229,0.0,0.0,88,0.00,,CLR,0.00,VWS V14.01,2013-01-05 13:28:00,
2013-01-05 07:43:00,4.7,1.9,30.13,SW,229,0.0,0.0,88,0.00,,CLR,0.00,VWS V14.01,2013-01-05 13:43:00,
2013-01-05 07:58:00,4.7,1.9,30.13,SW,229,0.0,0.0,88,0.00,,CLR,0.00,VWS V14.01,2013-01-05 13:58:00,
2013-01-05 08:13:00,4.7,2.2,30.12,SW,229,0.0,0.0,89,0.00,,CLR,0.00,VWS V14.01,2013-01-05 14:13:00,
2013-01-05 08:28:00,5.5,3.2,30.13,SW,229,0.0,0.0,90,0.00,,CLR,0.00,VWS V14.01,2013-01-05 14:28:00,
2013-01-05 08:43:00,5.7,3.2,30.12,SW,229,0.0,0.0,89,0.00,,CLR,0.00,VWS V14.01,2013-01-05 14:43:00,
2013-01-05 08:58:00,5.9,3.4,30.12,SW,229,0.0,0.0,89,0.00,,CLR,0.00,VWS V14.01,2013-01-05 14:58:00,
2013-01-05 09:13:00,6.9,4.6,30.11,SW,229,0.0,0.0,90,0.00,,CLR,0.00,VWS V14.01,2013-01-05 15:13:00,
2013-01-05 09:28:00,7.9,5.6,30.10,SW,229,0.0,0.0,90,0.00,,CLR,0.00,VWS V14.01,2013-01-05 15:28:00,
2013-01-05 09:43:00,9.4,7.3,30.09,SW,229,0.0,0.0,91,0.00,,CLR,0.00,VWS V14.01,2013-01-05 15:43:00,
2013-01-05 09:58:00,12.5,10.9,30.08,SW,229,0.0,0.0,93,0.00,,CLR,0.00,VWS V14.01,2013-01-05 15:58:00,
2013-01-05 10:13:00,14.7,13.1,30.09,SW,229,0.0,1.2,93,0.00,,CLR,0.00,VWS V14.01,2013-01-05 16:13:00,
2013-01-05 10:28:00,15.8,13.9,30.08,SW,229,0.0,0.0,92,0.00,,CLR,0.00,VWS V14.01,2013-01-05 16:28:00,
2013-01-05 10:43:00,17.0,14.8,30.09,SW,229,0.0,1.2,91,0.00,,CLR,0.00,VWS V14.01,2013-01-05 16:43:00,
2013-01-05 10:58:00,18.2,15.5,30.07,SW,229,0.0,0.0,89,0.00,,CLR,0.00,VWS V14.01,2013-01-05 16:58:00,
2013-01-05 11:13:00,19.2,16.2,30.06,SW,229,0.0,0.0,88,0.00,,CLR,0.00,VWS V14.01,2013-01-05 17:13:00,
2013-01-05 11:28:00,20.3,16.8,30.05,NNW,348,0.0,0.0,86,0.00,,CLR,0.00,VWS V14.01,2013-01-05 17:28:00,
2013-01-05 11:43:00,21.5,17.4,30.03,NNW,348,0.0,0.0,84,0.00,,CLR,0.00,VWS V14.01,2013-01-05 17:43:00,
2013-01-05 11:58:00,22.5,17.9,30.01,NNW,348,0.0,1.2,82,0.00,,CLR,0.00,VWS V14.01,2013-01-05 17:58:00,
2013-01-05 12:13:00,24.7,18.8,30.00,NNW,348,0.0,1.2,78,0.00,,CLR,0.00,VWS V14.01,2013-01-05 18:13:00,
2013-01-05 12:28:00,25.9,20.0,29.98,NNW,348,0.0,1.2,78,0.00,,CLR,0.00,VWS V14.01,2013-01-05 18:28:00,
2013-01-05 12:43:00,29.7,23.1,29.97,SSW,212,0.0,5.0,76,0.00,,CLR,0.00,VWS V14.01,2013-01-05 18:43:00,
2013-01-05 12:58:00,30.4,23.4,29.96,SSW,192,0.0,5.0,75,0.00,,CLR,0.00,VWS V14.01,2013-01-05 18:58:00,
2013-01-05 13:13:00,30.3,23.0,29.95,South,191,1.2,3.8,74,0.00,,CLR,0.00,VWS V14.01,2013-01-05 19:13:00,
2013-01-05 13:28:00,29.5,22.6,29.93,South,191,1.2,1.2,75,0.00,,CLR,0.00,VWS V14.01,2013-01-05 19:28:00,
2013-01-05 13:43:00,29.3,22.7,29.94,South,191,1.2,1.2,76,0.00,,CLR,0.00,VWS V14.01,2013-01-05 19:43:00,
2013-01-05 13:58:00,29.9,23.3,29.93,South,187,0.0,2.5,76,0.00,,CLR,0.00,VWS V14.01,2013-01-05 19:58:00,
2013-01-05 14:13:00,30.5,23.9,29.92,South,187,2.5,3.8,76,0.00,,CLR,0.00,VWS V14.01,2013-01-05 20:13:00,
2013-01-05 14:28:00,30.2,23.9,29.92,South,187,0.0,2.5,77,0.00,,CLR,0.00,VWS V14.01,2013-01-05 20:28:00,
2013-01-05 14:43:00,30.1,24.1,29.92,South,187,0.0,2.5,78,0.00,,CLR,0.00,VWS V14.01,2013-01-05 20:43:00,
2013-01-05 14:58:00,30.1,24.4,29.91,South,187,0.0,1.2,79,0.00,,CLR,0.00,VWS V14.01,2013-01-05 20:58:00,
2013-01-05 15:13:00,30.4,25.0,29.91,South,187,0.0,1.2,80,0.00,,CLR,0.00,VWS V14.01,2013-01-05 21:13:00,
2013-01-05 15:28:00,30.6,25.5,29.91,South,187,0.0,2.5,81,0.00,,CLR,0.00,VWS V14.01,2013-01-05 21:28:00,
2013-01-05 15:43:00,30.5,25.1,29.90,South,187,0.0,1.2,80,0.00,,CLR,0.00,VWS V14.01,2013-01-05 21:43:00,
2013-01-05 15:58:00,29.8,24.4,29.90,South,187,0.0,0.0,80,0.00,,CLR,0.00,VWS V14.01,2013-01-05 21:58:00,
2013-01-05 16:13:00,29.2,24.4,29.90,South,187,0.0,0.0,82,0.00,,CLR,0.00,VWS V14.01,2013-01-05 22:13:00,
2013-01-05 16:28:00,28.7,24.2,29.90,South,187,0.0,0.0,83,0.00,,CLR,0.00,VWS V14.01,2013-01-05 22:28:00,
2013-01-05 16:43:00,28.9,25.2,29.90,South,187,0.0,0.0,86,0.00,,CLR,0.00,VWS V14.01,2013-01-05 22:43:00,
2013-01-05 16:58:00,29.6,25.6,29.89,South,187,0.0,0.0,85,0.00,,CLR,0.00,VWS V14.01,2013-01-05 22:58:00,
2013-01-05 17:13:00,30.0,25.8,29.90,South,187,0.0,0.0,84,0.00,,CLR,0.00,VWS V14.01,2013-01-05 23:13:00,
2013-01-05 17:28:00,30.1,25.9,29.89,South,180,0.0,2.5,84,0.00,,CLR,0.00,VWS V14.01,2013-01-05 23:28:00,
2013-01-05 17:43:00,29.7,25.5,29.90,South,180,0.0,2.5,84,0.00,,CLR,0.00,VWS V14.01,2013-01-05 23:43:00,
2013-01-05 17:58:00,29.1,25.2,29.90,South,180,0.0,1.2,85,0.00,,SCT023,0.00,VWS V14.01,2013-01-05 23:58:00,
2013-01-05 18:13:00,28.9,25.2,29.90,South,180,0.0,0.0,86,0.00,,SCT022,0.00,VWS V14.01,2013-01-06 00:13:00,
2013-01-05 18:28:00,29.0,25.6,29.90,South,180,0.0,2.5,87,0.00,,OVC022,0.00,VWS V14.01,2013-01-06 00:28:00,
2013-01-05 18:43:00,29.0,25.6,29.90,South,180,0.0,0.0,87,0.00,,OVC022,0.00,VWS V14.01,2013-01-06 00:43:00,
2013-01-05 18:58:00,28.9,25.5,29.89,South,180,0.0,0.0,87,0.00,,OVC022,0.00,VWS V14.01,2013-01-06 00:58:00,
2013-01-05 19:13:00,28.6,25.5,29.89,South,180,0.0,0.0,88,0.00,,OVC026,0.00,VWS V14.01,2013-01-06 01:13:00,
2013-01-05 19:28:00,28.5,25.4,29.89,South,180,0.0,0.0,88,0.00,,OVC026,0.00,VWS V14.01,2013-01-06 01:28:00,
2013-01-05 19:43:00,28.6,25.8,29.90,South,180,0.0,0.0,89,0.00,,OVC026,0.00,VWS V14.01,2013-01-06 01:43:00,
2013-01-05 19:58:00,28.7,25.9,29.89,South,180,0.0,0.0,89,0.00,,OVC026,0.00,VWS V14.01,2013-01-06 01:58:00,
2013-01-05 20:13:00,28.8,26.0,29.89,South,180,0.0,0.0,89,0.00,,OVC026,0.00,VWS V14.01,2013-01-06 02:13:00,
2013-01-05 20:28:00,28.8,26.2,29.89,South,180,0.0,0.0,90,0.00,,OVC026,0.00,VWS V14.01,2013-01-06 02:28:00,
2013-01-05 20:43:00,28.8,26.2,29.89,South,180,0.0,0.0,90,0.00,,OVC026,0.00,VWS V14.01,2013-01-06 02:43:00,
2013-01-05 20:58:00,28.9,26.3,29.89,South,180,0.0,0.0,90,0.00,,OVC028,0.00,VWS V14.01,2013-01-06 02:58:00,
2013-01-05 21:13:00,28.7,26.1,29.89,South,180,0.0,0.0,90,0.00,,OVC028,0.00,VWS V14.01,2013-01-06 03:13:00,
2013-01-05 21:28:00,28.6,26.0,29.88,South,180,0.0,0.0,90,0.00,,OVC028,0.00,VWS V14.01,2013-01-06 03:28:00,
2013-01-05 21:43:00,28.7,26.1,29.88,South,180,0.0,0.0,90,0.00,,OVC028,0.00,VWS V14.01,2013-01-06 03:43:00,
2013-01-05 21:58:00,28.9,26.3,29.88,South,180,0.0,0.0,90,0.00,,OVC028,0.00,VWS V14.01,2013-01-06 03:58:00,
2013-01-05 22:13:00,29.2,26.6,29.87,WNW,285,0.0,3.8,90,0.00,,OVC028,0.00,VWS V14.01,2013-01-06 04:13:00,
2013-01-05 22:28:00,29.6,26.8,29.87,NW,306,2.5,5.0,89,0.00,,OVC026,0.00,VWS V14.01,2013-01-06 04:28:00,
2013-01-05 22:43:00,29.7,26.3,29.87,NNW,331,0.0,5.0,87,0.00,,OVC026,0.00,VWS V14.01,2013-01-06 04:43:00,
2013-01-05 22:58:00,29.8,25.9,29.87,SSW,209,2.5,10.0,85,0.00,,OVC026,0.00,VWS V14.01,2013-01-06 04:58:00,
2013-01-05 23:13:00,29.7,25.2,29.88,North,5,0.0,8.8,83,0.00,,OVC024,0.00,VWS V14.01,2013-01-06 05:13:00,
2013-01-05 23:28:00,29.5,24.7,29.87,SW,236,1.2,6.2,82,0.00,,OVC022,0.00,VWS V14.01,2013-01-06 05:28:00,
2013-01-05 23:43:00,29.4,24.6,29.88,SW,236,1.2,1.2,82,0.00,,OVC022,0.00,VWS V14.01,2013-01-06 05:43:00,
2013-01-05 23:58:00,29.0,23.9,29.88,SW,236,1.2,1.2,81,0.00,,OVC020,0.00,VWS V14.01,2013-01-06 05:58:00,